Flag for Malaysia Weather past 2 weeks in Johor Bahru, Malaysia

Now
82 °F

Passing clouds.


Feels Like: 89 °F
Forecast: 77 / 88 °F
Wind: No wind

Location: Singapore / Paya Lebar

Current Time: Apr 28, 2015 at 1:33:54 AM

Latest Report: Apr 27, 2015 at 11:00 PM


Visibility: N/A

Pressure: 29.89 "Hg

Humidity: 79%

Dew point: 75 °F

Location of Johor BahruLocation

Historic Weather in Johor Bahru — Graph

°F

Johor Bahru temperature yesterday

Maximum temperature yesterday: 90 °F (at 12:00 PM)
Minimum temperature yesterday: 79 °F (at 5:00 AM)
Average temperature yesterday: 84 °F

Past Weeks' High & Low Weather Summary

 TemperatureHumidityPressure
High95 °F (Apr 13, 2:00 PM)94% (Apr 19, 8:00 AM)29.95 "Hg (Apr 19, 8:00 AM)
Low77 °F (Apr 19, 7:00 AM)47% (Apr 14, 4:00 PM)29.71 "Hg (Apr 14, 5:00 PM)
Average86 °F72%29.82 "Hg
* Reported Apr 12 11:00 PM — Apr 27 11:00 PM, Johor Bahru, Weather by CustomWeather, © 2015

Note: Actual official high and low records may vary slightly from our data, if they occured in-between our weather recording intervals... More about our weather records

Advertising

Johor Bahru weather history for previous 24 hours

 ConditionsComfort  
Time TempWeatherWind HumidityBarometerVisibility
11:00 PM
Mon, Apr 27
82 °FPassing clouds.No wind79%29.89 "HgN/A
10:00 PM82 °FPassing clouds.3 mph79%29.89 "HgN/A
9:00 PM82 °FPassing clouds.No wind79%29.86 "HgN/A
8:00 PM84 °FPassing clouds.3 mph70%29.83 "HgN/A
7:00 PM84 °FPartly sunny.3 mph70%29.80 "HgN/A
6:00 PM86 °FPartly sunny.5 mph66%29.80 "HgN/A
5:00 PM84 °FPartly sunny.2 mph70%29.77 "Hg6 mi
4:00 PM84 °FPartly sunny.2 mph74%29.77 "Hg6 mi
3:00 PM84 °FPartly sunny.5 mph66%29.80 "HgN/A
2:00 PM82 °FThunderstorms. Scattered clouds.12 mph70%29.83 "Hg4 mi
1:00 PM86 °FMixture of precip. Scattered clouds.13 mph66%29.83 "Hg6 mi
12:00 PM90 °FPartly sunny.2 mph63%29.86 "HgN/A
11:00 AM86 °FBroken clouds.7 mph75%29.89 "HgN/A
10:00 AM86 °FPartly sunny.6 mph75%29.89 "HgN/A
9:00 AM82 °FScattered clouds.5 mph79%29.86 "HgN/A
8:00 AM81 °FPartly sunny.1 mph89%29.86 "HgN/A
7:00 AM81 °FPartly sunny.No wind89%29.83 "HgN/A
6:00 AM81 °FPassing clouds.No wind89%29.80 "HgN/A
5:00 AM79 °FPassing clouds.No wind89%29.80 "HgN/A
Weather by CustomWeather, © 2015

See weather overviewHow to use our weather pages